Time,TemperatureF,DewpointF,PressureIn,WindDirection,WindDirectionDegrees,WindSpeedMPH,WindSpeedGustMPH,Humidity,HourlyPrecipIn,Conditions,Clouds,dailyrainin,SolarRadiationWatts/m^2,SoftwareType,DateUTC
2013-01-01 00:01:00,36.1,33.1,30.23,WNW,303,0.0,3.0,89,0.00,,,0.00,0,HR-IXPWINDi_r2_v1.2.,2013-01-01 08:01:00,
2013-01-01 00:07:00,36.1,33.1,30.23,WNW,303,0.0,2.0,89,0.00,,,0.00,0,HR-IXPWINDi_r2_v1.2.,2013-01-01 08:07:00,
2013-01-01 00:12:00,36.0,33.0,30.23,WNW,303,0.0,2.0,89,0.00,,,0.00,0,HR-IXPWINDi_r2_v1.2.,2013-01-01 08:12:00,
2013-01-01 00:17:00,36.0,33.0,30.22,NW,305,0.0,2.0,89,0.00,,,0.00,0,HR-IXPWINDi_r2_v1.2.,2013-01-01 08:17:00,
2013-01-01 00:22:00,36.0,33.0,30.22,NW,305,0.0,2.0,89,0.00,,,0.00,0,HR-IXPWINDi_r2_v1.2.,2013-01-01 08:22:00,
2013-01-01 00:27:00,36.0,33.0,30.22,NW,309,1.0,2.0,89,0.00,,,0.00,0,HR-IXPWINDi_r2_v1.2.,2013-01-01 08:27:00,
2013-01-01 00:33:00,36.0,33.0,30.22,NW,306,0.0,2.0,89,0.00,,,0.00,0,HR-IXPWINDi_r2_v1.2.,2013-01-01 08:33:00,
2013-01-01 00:38:00,36.0,33.0,30.22,NW,306,0.0,2.0,89,0.00,,,0.00,0,HR-IXPWINDi_r2_v1.2.,2013-01-01 08:38:00,
2013-01-01 00:43:00,36.2,33.0,30.22,NW,306,0.0,2.0,88,0.00,,,0.00,0,HR-IXPWINDi_r2_v1.2.,2013-01-01 08:43:00,
2013-01-01 00:49:00,36.3,33.1,30.22,WNW,297,0.0,3.0,88,0.00,,,0.00,0,HR-IXPWINDi_r2_v1.2.,2013-01-01 08:49:00,
2013-01-01 00:54:00,36.6,33.3,30.22,WNW,300,3.0,3.0,88,0.00,,,0.00,0,HR-IXPWINDi_r2_v1.2.,2013-01-01 08:54:00,
2013-01-01 00:59:00,36.9,33.4,30.22,WNW,291,2.0,4.0,87,0.00,,,0.00,0,HR-IXPWINDi_r2_v1.2.,2013-01-01 08:59:00,
2013-01-01 01:04:00,37.0,33.2,30.22,WNW,294,0.0,4.0,86,0.00,,,0.00,0,HR-IXPWINDi_r2_v1.2.,2013-01-01 09:04:00,
2013-01-01 01:10:00,36.8,33.3,30.22,NW,307,1.0,2.0,87,0.00,,,0.00,0,HR-IXPWINDi_r2_v1.2.,2013-01-01 09:10:00,
2013-01-01 01:15:00,36.4,32.9,30.23,NW,307,0.0,2.0,87,0.00,,,0.00,0,HR-IXPWINDi_r2_v1.2.,2013-01-01 09:15:00,
2013-01-01 01:20:00,35.9,32.7,30.23,NW,307,0.0,1.0,88,0.00,,,0.00,0,HR-IXPWINDi_r2_v1.2.,2013-01-01 09:20:00,
2013-01-01 01:25:00,35.7,32.7,30.23,NW,307,0.0,1.0,89,0.00,,,0.00,0,HR-IXPWINDi_r2_v1.2.,2013-01-01 09:25:00,
2013-01-01 01:30:00,35.6,32.6,30.23,NW,307,0.0,1.0,89,0.00,,,0.00,0,HR-IXPWINDi_r2_v1.2.,2013-01-01 09:30:00,
2013-01-01 01:36:00,35.3,32.4,30.23,NW,307,0.0,1.0,89,0.00,,,0.00,0,HR-IXPWINDi_r2_v1.2.,2013-01-01 09:36:00,
2013-01-01 01:41:00,35.1,32.7,30.23,NW,307,0.0,1.0,91,0.00,,,0.00,0,HR-IXPWINDi_r2_v1.2.,2013-01-01 09:41:00,
2013-01-01 01:46:00,35.1,32.7,30.23,NW,307,1.0,2.0,91,0.00,,,0.00,0,HR-IXPWINDi_r2_v1.2.,2013-01-01 09:46:00,
2013-01-01 01:51:00,35.0,32.6,30.23,NW,307,0.0,2.0,91,0.00,,,0.00,0,HR-IXPWINDi_r2_v1.2.,2013-01-01 09:51:00,
2013-01-01 01:56:00,34.9,32.5,30.23,NW,307,0.0,2.0,91,0.00,,,0.00,0,HR-IXPWINDi_r2_v1.2.,2013-01-01 09:56:00,
2013-01-01 02:02:00,34.7,32.3,30.23,NW,307,0.0,2.0,91,0.00,,,0.00,0,HR-IXPWINDi_r2_v1.2.,2013-01-01 10:02:00,
2013-01-01 02:07:00,34.8,32.7,30.23,NW,307,0.0,2.0,92,0.00,,,0.00,0,HR-IXPWINDi_r2_v1.2.,2013-01-01 10:07:00,
2013-01-01 02:12:00,34.6,32.5,30.23,NW,307,0.0,2.0,92,0.00,,,0.00,0,HR-IXPWINDi_r2_v1.2.,2013-01-01 10:12:00,
2013-01-01 02:17:00,34.3,32.2,30.22,NW,307,0.0,1.0,92,0.00,,,0.00,0,HR-IXPWINDi_r2_v1.2.,2013-01-01 10:17:00,
2013-01-01 02:22:00,34.2,32.1,30.22,NW,307,0.0,1.0,92,0.00,,,0.00,0,HR-IXPWINDi_r2_v1.2.,2013-01-01 10:22:00,
2013-01-01 02:27:00,33.9,31.8,30.22,NW,307,0.0,2.0,92,0.00,,,0.00,0,HR-IXPWINDi_r2_v1.2.,2013-01-01 10:27:00,
2013-01-01 02:33:00,33.9,32.1,30.22,NW,307,0.0,2.0,93,0.00,,,0.00,0,HR-IXPWINDi_r2_v1.2.,2013-01-01 10:33:00,
2013-01-01 02:38:00,33.7,31.9,30.22,NW,307,0.0,1.0,93,0.00,,,0.00,0,HR-IXPWINDi_r2_v1.2.,2013-01-01 10:38:00,
2013-01-01 02:43:00,33.5,31.7,30.21,NW,307,0.0,1.0,93,0.00,,,0.00,0,HR-IXPWINDi_r2_v1.2.,2013-01-01 10:43:00,
2013-01-01 02:48:00,33.5,31.7,30.21,NW,307,0.0,0.0,93,0.00,,,0.00,0,HR-IXPWINDi_r2_v1.2.,2013-01-01 10:48:00,
2013-01-01 02:53:00,33.3,31.5,30.21,NW,307,0.0,1.0,93,0.00,,,0.00,0,HR-IXPWINDi_r2_v1.2.,2013-01-01 10:53:00,
2013-01-01 02:58:00,33.3,31.5,30.21,NW,307,0.0,1.0,93,0.00,,,0.00,0,HR-IXPWINDi_r2_v1.2.,2013-01-01 10:58:00,
2013-01-01 03:03:00,33.2,31.4,30.20,NW,307,2.0,2.0,93,0.00,,,0.00,0,HR-IXPWINDi_r2_v1.2.,2013-01-01 11:03:00,
2013-01-01 03:09:00,33.5,31.7,30.21,NW,307,1.0,3.0,93,0.00,,,0.00,0,HR-IXPWINDi_r2_v1.2.,2013-01-01 11:09:00,
2013-01-01 03:14:00,33.5,31.7,30.20,NW,307,1.0,3.0,93,0.00,,,0.00,0,HR-IXPWINDi_r2_v1.2.,2013-01-01 11:14:00,
2013-01-01 03:19:00,33.3,31.5,30.21,NW,307,0.0,2.0,93,0.00,,,0.00,0,HR-IXPWINDi_r2_v1.2.,2013-01-01 11:19:00,
2013-01-01 03:24:00,33.4,31.8,30.20,NW,313,0.0,2.0,94,0.00,,,0.00,0,HR-IXPWINDi_r2_v1.2.,2013-01-01 11:24:00,
2013-01-01 03:30:00,33.5,31.9,30.21,NW,313,0.0,2.0,94,0.00,,,0.00,0,HR-IXPWINDi_r2_v1.2.,2013-01-01 11:30:00,
2013-01-01 03:35:00,33.4,31.6,30.21,NW,313,0.0,1.0,93,0.00,,,0.00,0,HR-IXPWINDi_r2_v1.2.,2013-01-01 11:35:00,
2013-01-01 03:40:00,33.4,31.6,30.20,NW,313,0.0,1.0,93,0.00,,,0.00,0,HR-IXPWINDi_r2_v1.2.,2013-01-01 11:40:00,
2013-01-01 03:45:00,33.5,31.9,30.20,NW,313,1.0,2.0,94,0.00,,,0.00,0,HR-IXPWINDi_r2_v1.2.,2013-01-01 11:45:00,
2013-01-01 03:50:00,33.8,32.2,30.21,NW,313,1.0,2.0,94,0.00,,,0.00,0,HR-IXPWINDi_r2_v1.2.,2013-01-01 11:50:00,
2013-01-01 03:55:00,34.0,32.4,30.21,NW,313,2.0,2.0,94,0.00,,,0.00,0,HR-IXPWINDi_r2_v1.2.,2013-01-01 11:55:00,
2013-01-01 04:01:00,34.2,32.6,30.21,NW,313,0.0,2.0,94,0.00,,,0.00,0,HR-IXPWINDi_r2_v1.2.,2013-01-01 12:01:00,
2013-01-01 04:06:00,34.6,33.0,30.21,NW,313,0.0,2.0,94,0.00,,,0.00,0,HR-IXPWINDi_r2_v1.2.,2013-01-01 12:06:00,
2013-01-01 04:11:00,35.0,33.4,30.20,NW,313,0.0,2.0,94,0.00,,,0.00,0,HR-IXPWINDi_r2_v1.2.,2013-01-01 12:11:00,
2013-01-01 04:16:00,35.2,33.3,30.20,NW,313,0.0,2.0,93,0.00,,,0.00,0,HR-IXPWINDi_r2_v1.2.,2013-01-01 12:16:00,
2013-01-01 04:21:00,35.0,33.1,30.21,NW,313,0.0,0.0,93,0.00,,,0.00,0,HR-IXPWINDi_r2_v1.2.,2013-01-01 12:21:00,
2013-01-01 04:26:00,34.9,33.0,30.20,NW,313,0.0,0.0,93,0.00,,,0.00,0,HR-IXPWINDi_r2_v1.2.,2013-01-01 12:26:00,
2013-01-01 04:32:00,34.5,32.4,30.20,NW,313,0.0,1.0,92,0.00,,,0.00,0,HR-IXPWINDi_r2_v1.2.,2013-01-01 12:32:00,
2013-01-01 04:37:00,34.4,32.6,30.21,NW,313,0.0,1.0,93,0.00,,,0.00,0,HR-IXPWINDi_r2_v1.2.,2013-01-01 12:37:00,
2013-01-01 04:42:00,34.3,32.5,30.20,NW,313,0.0,1.0,93,0.00,,,0.00,0,HR-IXPWINDi_r2_v1.2.,2013-01-01 12:42:00,
2013-01-01 04:47:00,34.1,32.3,30.20,NW,313,0.0,1.0,93,0.00,,,0.00,0,HR-IXPWINDi_r2_v1.2.,2013-01-01 12:47:00,
2013-01-01 04:53:00,33.8,32.0,30.20,NW,313,0.0,1.0,93,0.00,,,0.00,0,HR-IXPWINDi_r2_v1.2.,2013-01-01 12:53:00,
2013-01-01 04:58:00,33.7,31.9,30.19,NW,313,0.0,1.0,93,0.00,,,0.00,0,HR-IXPWINDi_r2_v1.2.,2013-01-01 12:58:00,
2013-01-01 05:03:00,33.8,32.0,30.19,NW,313,0.0,1.0,93,0.00,,,0.00,0,HR-IXPWINDi_r2_v1.2.,2013-01-01 13:03:00,
2013-01-01 05:08:00,33.7,31.9,30.20,NW,313,0.0,1.0,93,0.00,,,0.00,0,HR-IXPWINDi_r2_v1.2.,2013-01-01 13:08:00,
2013-01-01 05:13:00,33.3,31.5,30.19,NW,313,0.0,2.0,93,0.00,,,0.00,0,HR-IXPWINDi_r2_v1.2.,2013-01-01 13:13:00,
2013-01-01 05:18:00,33.5,31.7,30.19,NW,313,1.0,3.0,93,0.00,,,0.00,0,HR-IXPWINDi_r2_v1.2.,2013-01-01 13:18:00,
2013-01-01 05:23:00,33.6,31.8,30.19,NW,313,0.0,3.0,93,0.00,,,0.00,0,HR-IXPWINDi_r2_v1.2.,2013-01-01 13:23:00,
2013-01-01 05:29:00,33.1,31.3,30.19,NW,313,0.0,2.0,93,0.00,,,0.00,0,HR-IXPWINDi_r2_v1.2.,2013-01-01 13:29:00,
2013-01-01 05:34:00,33.1,31.5,30.20,NW,313,0.0,0.0,94,0.00,,,0.00,0,HR-IXPWINDi_r2_v1.2.,2013-01-01 13:34:00,
2013-01-01 05:39:00,32.8,31.0,30.20,NW,313,0.0,1.0,93,0.00,,,0.00,0,HR-IXPWINDi_r2_v1.2.,2013-01-01 13:39:00,
2013-01-01 05:44:00,32.6,30.8,30.20,NW,313,0.0,2.0,93,0.00,,,0.00,0,HR-IXPWINDi_r2_v1.2.,2013-01-01 13:44:00,
2013-01-01 05:50:00,32.8,31.2,30.21,NW,313,0.0,2.0,94,0.00,,,0.00,0,HR-IXPWINDi_r2_v1.2.,2013-01-01 13:50:00,
2013-01-01 05:55:00,32.9,31.1,30.21,NW,313,1.0,1.0,93,0.00,,,0.00,0,HR-IXPWINDi_r2_v1.2.,2013-01-01 13:55:00,
2013-01-01 06:00:00,33.0,31.4,30.21,NW,313,0.0,2.0,94,0.00,,,0.00,0,HR-IXPWINDi_r2_v1.2.,2013-01-01 14:00:00,
2013-01-01 06:05:00,33.2,31.6,30.21,NW,313,0.0,2.0,94,0.00,,,0.00,0,HR-IXPWINDi_r2_v1.2.,2013-01-01 14:05:00,
2013-01-01 06:10:00,32.9,31.1,30.21,NW,313,0.0,1.0,93,0.00,,,0.00,0,HR-IXPWINDi_r2_v1.2.,2013-01-01 14:10:00,
2013-01-01 06:15:00,32.9,31.3,30.22,NW,313,0.0,0.0,94,0.00,,,0.00,0,HR-IXPWINDi_r2_v1.2.,2013-01-01 14:15:00,
2013-01-01 06:21:00,33.4,31.8,30.21,NW,313,0.0,0.0,94,0.00,,,0.00,0,HR-IXPWINDi_r2_v1.2.,2013-01-01 14:21:00,
2013-01-01 06:26:00,33.5,31.9,30.21,NW,313,0.0,0.0,94,0.00,,,0.00,0,HR-IXPWINDi_r2_v1.2.,2013-01-01 14:26:00,
2013-01-01 06:31:00,33.7,32.1,30.21,NW,313,0.0,1.0,94,0.00,,,0.00,0,HR-IXPWINDi_r2_v1.2.,2013-01-01 14:31:00,
2013-01-01 06:36:00,34.1,32.5,30.21,NW,313,0.0,1.0,94,0.00,,,0.00,0,HR-IXPWINDi_r2_v1.2.,2013-01-01 14:36:00,
2013-01-01 06:41:00,34.3,32.7,30.21,NW,313,0.0,0.0,94,0.00,,,0.00,0,HR-IXPWINDi_r2_v1.2.,2013-01-01 14:41:00,
2013-01-01 06:46:00,34.6,33.0,30.21,NW,313,0.0,1.0,94,0.00,,,0.00,0,HR-IXPWINDi_r2_v1.2.,2013-01-01 14:46:00,
2013-01-01 06:51:00,34.8,33.2,30.21,NW,313,0.0,1.0,94,0.00,,,0.00,0,HR-IXPWINDi_r2_v1.2.,2013-01-01 14:51:00,
2013-01-01 06:57:00,35.0,33.4,30.21,NW,313,0.0,1.0,94,0.00,,,0.00,0,HR-IXPWINDi_r2_v1.2.,2013-01-01 14:57:00,
2013-01-01 07:02:00,35.2,33.6,30.20,NW,313,1.0,1.0,94,0.00,,,0.00,0,HR-IXPWINDi_r2_v1.2.,2013-01-01 15:02:00,
2013-01-01 07:07:00,35.4,33.8,30.20,NW,313,0.0,2.0,94,0.00,,,0.00,0,HR-IXPWINDi_r2_v1.2.,2013-01-01 15:07:00,
2013-01-01 07:12:00,35.6,34.0,30.21,NW,313,0.0,2.0,94,0.00,,,0.00,0,HR-IXPWINDi_r2_v1.2.,2013-01-01 15:12:00,
2013-01-01 07:17:00,35.8,34.2,30.21,NW,313,0.0,2.0,94,0.00,,,0.00,9,HR-IXPWINDi_r2_v1.2.,2013-01-01 15:17:00,
2013-01-01 07:23:00,36.1,34.5,30.21,NW,313,0.0,2.0,94,0.00,,,0.00,12,HR-IXPWINDi_r2_v1.2.,2013-01-01 15:23:00,
2013-01-01 07:28:00,36.5,34.9,30.21,NW,313,1.0,2.0,94,0.00,,,0.00,14,HR-IXPWINDi_r2_v1.2.,2013-01-01 15:28:00,
2013-01-01 07:33:00,36.9,35.0,30.21,NW,313,0.0,1.0,93,0.00,,,0.00,18,HR-IXPWINDi_r2_v1.2.,2013-01-01 15:33:00,
2013-01-01 07:39:00,37.3,35.4,30.21,NW,313,0.0,2.0,93,0.00,,,0.00,19,HR-IXPWINDi_r2_v1.2.,2013-01-01 15:39:00,
2013-01-01 07:44:00,37.8,35.6,30.21,NW,313,1.0,2.0,92,0.00,,,0.00,19,HR-IXPWINDi_r2_v1.2.,2013-01-01 15:44:00,
2013-01-01 07:49:00,38.4,36.0,30.21,NW,313,0.0,2.0,91,0.00,,,0.00,21,HR-IXPWINDi_r2_v1.2.,2013-01-01 15:49:00,
2013-01-01 07:54:00,38.6,36.2,30.21,NW,313,0.0,1.0,91,0.00,,,0.00,23,HR-IXPWINDi_r2_v1.2.,2013-01-01 15:54:00,
2013-01-01 08:00:00,39.0,36.3,30.21,WNW,283,0.0,2.0,90,0.00,,,0.00,26,HR-IXPWINDi_r2_v1.2.,2013-01-01 16:00:00,
2013-01-01 08:05:00,38.9,35.9,30.22,WNW,283,0.0,2.0,89,0.00,,,0.00,32,HR-IXPWINDi_r2_v1.2.,2013-01-01 16:05:00,
2013-01-01 08:10:00,39.2,36.2,30.22,WNW,283,0.0,0.0,89,0.00,,,0.00,39,HR-IXPWINDi_r2_v1.2.,2013-01-01 16:10:00,
2013-01-01 08:15:00,39.4,36.4,30.22,WNW,283,0.0,0.0,89,0.00,,,0.00,51,HR-IXPWINDi_r2_v1.2.,2013-01-01 16:15:00,
2013-01-01 08:20:00,39.6,36.6,30.22,WNW,283,0.0,0.0,89,0.00,,,0.00,67,HR-IXPWINDi_r2_v1.2.,2013-01-01 16:20:00,
2013-01-01 08:26:00,40.1,36.8,30.22,WNW,283,0.0,0.0,88,0.00,,,0.00,83,HR-IXPWINDi_r2_v1.2.,2013-01-01 16:26:00,
2013-01-01 08:31:00,40.5,36.6,30.22,WNW,283,0.0,0.0,86,0.00,,,0.00,98,HR-IXPWINDi_r2_v1.2.,2013-01-01 16:31:00,
2013-01-01 08:36:00,41.2,37.0,30.22,WNW,283,0.0,1.0,85,0.00,,,0.00,120,HR-IXPWINDi_r2_v1.2.,2013-01-01 16:36:00,
2013-01-01 08:41:00,42.1,37.6,30.22,WNW,283,1.0,2.0,84,0.00,,,0.00,132,HR-IXPWINDi_r2_v1.2.,2013-01-01 16:41:00,
2013-01-01 08:46:00,42.7,36.9,30.22,WNW,283,0.0,2.0,80,0.00,,,0.00,144,HR-IXPWINDi_r2_v1.2.,2013-01-01 16:46:00,
2013-01-01 08:52:00,44.3,38.2,30.23,WNW,288,2.0,3.0,79,0.00,,,0.00,137,HR-IXPWINDi_r2_v1.2.,2013-01-01 16:52:00,
2013-01-01 08:57:00,44.8,36.6,30.23,NNW,343,0.0,3.0,73,0.00,,,0.00,146,HR-IXPWINDi_r2_v1.2.,2013-01-01 16:57:00,
2013-01-01 09:02:00,45.5,37.0,30.22,NNW,342,0.0,3.0,72,0.00,,,0.00,171,HR-IXPWINDi_r2_v1.2.,2013-01-01 17:02:00,
2013-01-01 09:08:00,46.5,38.3,30.22,SSE,154,2.0,3.0,73,0.00,,,0.00,167,HR-IXPWINDi_r2_v1.2.,2013-01-01 17:08:00,
2013-01-01 09:13:00,46.7,36.7,30.22,South,178,0.0,3.0,68,0.00,,,0.00,181,HR-IXPWINDi_r2_v1.2.,2013-01-01 17:13:00,
2013-01-01 09:18:00,47.5,36.7,30.22,South,185,2.0,3.0,66,0.00,,,0.00,171,HR-IXPWINDi_r2_v1.2.,2013-01-01 17:18:00,
2013-01-01 09:23:00,48.3,36.3,30.22,WSW,246,0.0,3.0,63,0.00,,,0.00,148,HR-IXPWINDi_r2_v1.2.,2013-01-01 17:23:00,
2013-01-01 09:29:00,48.9,38.8,30.22,ESE,117,0.0,3.0,68,0.00,,,0.00,151,HR-IXPWINDi_r2_v1.2.,2013-01-01 17:29:00,
2013-01-01 09:34:00,49.1,36.6,30.22,SSE,148,0.0,2.0,62,0.00,,,0.00,171,HR-IXPWINDi_r2_v1.2.,2013-01-01 17:34:00,
2013-01-01 09:39:00,49.7,36.3,30.22,South,179,0.0,2.0,60,0.00,,,0.00,153,HR-IXPWINDi_r2_v1.2.,2013-01-01 17:39:00,
2013-01-01 09:44:00,50.5,37.1,30.21,SW,234,3.0,4.0,60,0.00,,,0.00,104,HR-IXPWINDi_r2_v1.2.,2013-01-01 17:44:00,
2013-01-01 09:49:00,51.4,37.1,30.21,SSW,192,2.0,6.0,58,0.00,,,0.00,77,HR-IXPWINDi_r2_v1.2.,2013-01-01 17:49:00,
2013-01-01 09:55:00,52.1,37.3,30.21,South,175,2.0,6.0,57,0.00,,,0.00,70,HR-IXPWINDi_r2_v1.2.,2013-01-01 17:55:00,
2013-01-01 10:00:00,52.3,36.6,30.21,South,173,3.0,5.0,55,0.00,,,0.00,69,HR-IXPWINDi_r2_v1.2.,2013-01-01 18:00:00,
2013-01-01 10:05:00,52.3,36.6,30.21,SSE,161,1.0,5.0,55,0.00,,,0.00,74,HR-IXPWINDi_r2_v1.2.,2013-01-01 18:05:00,
2013-01-01 10:10:00,52.3,36.1,30.21,SSE,168,3.0,5.0,54,0.00,,,0.00,113,HR-IXPWINDi_r2_v1.2.,2013-01-01 18:10:00,
2013-01-01 10:15:00,52.7,35.5,30.21,SSE,167,1.0,7.0,52,0.00,,,0.00,139,HR-IXPWINDi_r2_v1.2.,2013-01-01 18:15:00,
2013-01-01 10:20:00,52.5,35.8,30.21,SSE,161,2.0,7.0,53,0.00,,,0.00,171,HR-IXPWINDi_r2_v1.2.,2013-01-01 18:20:00,
2013-01-01 10:26:00,52.3,35.2,30.21,WSW,240,2.0,5.0,52,0.00,,,0.00,158,HR-IXPWINDi_r2_v1.2.,2013-01-01 18:26:00,
2013-01-01 10:31:00,52.5,35.3,30.20,South,188,3.0,5.0,52,0.00,,,0.00,156,HR-IXPWINDi_r2_v1.2.,2013-01-01 18:31:00,
2013-01-01 10:36:00,52.3,35.2,30.20,SSE,168,4.0,5.0,52,0.00,,,0.00,171,HR-IXPWINDi_r2_v1.2.,2013-01-01 18:36:00,
2013-01-01 10:41:00,53.2,35.5,30.20,South,182,0.0,5.0,51,0.00,,,0.00,385,HR-IXPWINDi_r2_v1.2.,2013-01-01 18:41:00,
2013-01-01 10:47:00,53.5,35.8,30.19,South,171,1.0,4.0,51,0.00,,,0.00,434,HR-IXPWINDi_r2_v1.2.,2013-01-01 18:47:00,
2013-01-01 10:51:00,54.5,34.1,30.19,ESE,121,1.0,6.0,46,0.00,,,0.00,385,HR-IXPWINDi_r2_v1.2.,2013-01-01 18:51:00,
2013-01-01 10:57:00,54.6,34.7,30.18,SE,124,2.0,8.0,47,0.00,,,0.00,272,HR-IXPWINDi_r2_v1.2.,2013-01-01 18:57:00,
2013-01-01 11:02:00,54.7,34.8,30.18,ESE,108,2.0,8.0,47,0.00,,,0.00,274,HR-IXPWINDi_r2_v1.2.,2013-01-01 19:02:00,
2013-01-01 11:07:00,54.9,35.0,30.17,South,188,0.0,4.0,47,0.00,,,0.00,265,HR-IXPWINDi_r2_v1.2.,2013-01-01 19:07:00,
2013-01-01 11:12:00,55.0,36.2,30.17,ESE,106,1.0,4.0,49,0.00,,,0.00,269,HR-IXPWINDi_r2_v1.2.,2013-01-01 19:12:00,
2013-01-01 11:18:00,55.6,35.1,30.17,NE,42,0.0,4.0,46,0.00,,,0.00,281,HR-IXPWINDi_r2_v1.2.,2013-01-01 19:18:00,
2013-01-01 11:23:00,56.3,35.8,30.16,South,187,0.0,4.0,46,0.00,,,0.00,285,HR-IXPWINDi_r2_v1.2.,2013-01-01 19:23:00,
2013-01-01 11:28:00,56.7,34.4,30.16,SSW,194,1.0,4.0,43,0.00,,,0.00,253,HR-IXPWINDi_r2_v1.2.,2013-01-01 19:28:00,
2013-01-01 11:33:00,56.8,37.8,30.15,West,263,0.0,3.0,49,0.00,,,0.00,241,HR-IXPWINDi_r2_v1.2.,2013-01-01 19:33:00,
2013-01-01 11:39:00,57.0,31.0,30.15,SSE,157,0.0,4.0,37,0.00,,,0.00,243,HR-IXPWINDi_r2_v1.2.,2013-01-01 19:39:00,
2013-01-01 11:44:00,57.5,32.1,30.14,South,177,1.0,4.0,38,0.00,,,0.00,250,HR-IXPWINDi_r2_v1.2.,2013-01-01 19:44:00,
2013-01-01 11:49:00,58.1,30.6,30.13,SSE,155,4.0,5.0,35,0.00,,,0.00,285,HR-IXPWINDi_r2_v1.2.,2013-01-01 19:49:00,
2013-01-01 11:54:00,58.9,32.6,30.13,South,169,2.0,6.0,37,0.00,,,0.00,355,HR-IXPWINDi_r2_v1.2.,2013-01-01 19:54:00,
2013-01-01 11:59:00,59.0,29.2,30.13,WSW,257,1.0,6.0,32,0.00,,,0.00,350,HR-IXPWINDi_r2_v1.2.,2013-01-01 19:59:00,
2013-01-01 12:05:00,58.7,27.3,30.13,WSW,251,2.0,5.0,30,0.00,,,0.00,253,HR-IXPWINDi_r2_v1.2.,2013-01-01 20:05:00,
2013-01-01 12:10:00,58.6,28.8,30.12,WSW,251,0.0,5.0,32,0.00,,,0.00,241,HR-IXPWINDi_r2_v1.2.,2013-01-01 20:10:00,
2013-01-01 12:15:00,59.0,32.1,30.12,SE,125,2.0,2.0,36,0.00,,,0.00,241,HR-IXPWINDi_r2_v1.2.,2013-01-01 20:15:00,
2013-01-01 12:20:00,58.9,29.8,30.12,NE,51,1.0,6.0,33,0.00,,,0.00,236,HR-IXPWINDi_r2_v1.2.,2013-01-01 20:20:00,
2013-01-01 12:25:00,58.8,29.0,30.12,South,177,2.0,6.0,32,0.00,,,0.00,234,HR-IXPWINDi_r2_v1.2.,2013-01-01 20:25:00,
2013-01-01 12:31:00,58.7,24.8,30.11,ENE,57,1.0,9.0,27,0.00,,,0.00,258,HR-IXPWINDi_r2_v1.2.,2013-01-01 20:31:00,
2013-01-01 12:36:00,59.1,27.7,30.11,South,173,2.0,9.0,30,0.00,,,0.00,260,HR-IXPWINDi_r2_v1.2.,2013-01-01 20:36:00,
2013-01-01 12:41:00,58.8,29.0,30.11,SSW,206,3.0,11.0,32,0.00,,,0.00,253,HR-IXPWINDi_r2_v1.2.,2013-01-01 20:41:00,
2013-01-01 12:46:00,58.9,27.5,30.10,SSW,196,2.0,11.0,30,0.00,,,0.00,315,HR-IXPWINDi_r2_v1.2.,2013-01-01 20:46:00,
2013-01-01 12:51:00,60.0,29.3,30.10,South,175,2.0,8.0,31,0.00,,,0.00,345,HR-IXPWINDi_r2_v1.2.,2013-01-01 20:51:00,
2013-01-01 12:56:00,59.8,26.6,30.10,East,88,3.0,8.0,28,0.00,,,0.00,352,HR-IXPWINDi_r2_v1.2.,2013-01-01 20:56:00,
2013-01-01 13:01:00,59.7,27.4,30.10,SSW,204,6.0,11.0,29,0.00,,,0.00,279,HR-IXPWINDi_r2_v1.2.,2013-01-01 21:01:00,
2013-01-01 13:07:00,59.3,26.2,30.10,SE,132,7.0,15.0,28,0.00,,,0.00,251,HR-IXPWINDi_r2_v1.2.,2013-01-01 21:07:00,
2013-01-01 13:12:00,59.0,25.9,30.10,South,172,3.0,15.0,28,0.00,,,0.00,236,HR-IXPWINDi_r2_v1.2.,2013-01-01 21:12:00,
2013-01-01 13:17:00,59.0,26.8,30.10,NNE,26,6.0,9.0,29,0.00,,,0.00,267,HR-IXPWINDi_r2_v1.2.,2013-01-01 21:17:00,
2013-01-01 13:22:00,59.2,23.4,30.10,North,350,6.0,11.0,25,0.00,,,0.00,297,HR-IXPWINDi_r2_v1.2.,2013-01-01 21:22:00,
2013-01-01 13:28:00,59.6,26.4,30.10,South,182,1.0,13.0,28,0.00,,,0.00,313,HR-IXPWINDi_r2_v1.2.,2013-01-01 21:28:00,
2013-01-01 13:33:00,59.6,23.7,30.10,North,5,4.0,13.0,25,0.00,,,0.00,283,HR-IXPWINDi_r2_v1.2.,2013-01-01 21:33:00,
2013-01-01 13:38:00,60.0,24.1,30.10,NE,46,6.0,8.0,25,0.00,,,0.00,427,HR-IXPWINDi_r2_v1.2.,2013-01-01 21:38:00,
2013-01-01 13:43:00,60.2,27.0,30.09,SSE,161,2.0,8.0,28,0.00,,,0.00,302,HR-IXPWINDi_r2_v1.2.,2013-01-01 21:43:00,
2013-01-01 13:49:00,60.2,24.2,30.09,ESE,109,0.0,10.0,25,0.00,,,0.00,388,HR-IXPWINDi_r2_v1.2.,2013-01-01 21:49:00,
2013-01-01 13:54:00,60.3,25.3,30.09,East,101,2.0,10.0,26,0.00,,,0.00,352,HR-IXPWINDi_r2_v1.2.,2013-01-01 21:54:00,
2013-01-01 13:59:00,61.3,24.2,30.09,ENE,69,11.0,11.0,24,0.00,,,0.00,424,HR-IXPWINDi_r2_v1.2.,2013-01-01 21:59:00,
2013-01-01 14:04:00,60.6,22.6,30.09,ENE,67,2.0,11.0,23,0.00,,,0.00,288,HR-IXPWINDi_r2_v1.2.,2013-01-01 22:04:00,
2013-01-01 14:09:00,60.4,23.4,30.09,East,87,3.0,11.0,24,0.00,,,0.00,320,HR-IXPWINDi_r2_v1.2.,2013-01-01 22:09:00,
2013-01-01 14:15:00,60.4,23.4,30.09,SSW,193,1.0,11.0,24,0.00,,,0.00,260,HR-IXPWINDi_r2_v1.2.,2013-01-01 22:15:00,
2013-01-01 14:20:00,59.9,24.0,30.09,SSE,162,2.0,7.0,25,0.00,,,0.00,239,HR-IXPWINDi_r2_v1.2.,2013-01-01 22:20:00,
2013-01-01 14:25:00,59.6,21.8,30.09,ENE,76,5.0,7.0,23,0.00,,,0.00,262,HR-IXPWINDi_r2_v1.2.,2013-01-01 22:25:00,
2013-01-01 14:30:00,59.3,21.5,30.09,SW,224,5.0,9.0,23,0.00,,,0.00,258,HR-IXPWINDi_r2_v1.2.,2013-01-01 22:30:00,
2013-01-01 14:35:00,60.0,24.1,30.08,ENE,64,3.0,10.0,25,0.00,,,0.00,494,HR-IXPWINDi_r2_v1.2.,2013-01-01 22:35:00,
2013-01-01 14:41:00,61.9,25.7,30.09,ENE,78,7.0,13.0,25,0.00,,,0.00,448,HR-IXPWINDi_r2_v1.2.,2013-01-01 22:41:00,
2013-01-01 14:46:00,61.2,23.1,30.08,ESE,103,0.0,13.0,23,0.00,,,0.00,392,HR-IXPWINDi_r2_v1.2.,2013-01-01 22:46:00,
2013-01-01 14:51:00,60.6,21.5,30.09,East,101,2.0,12.0,22,0.00,,,0.00,267,HR-IXPWINDi_r2_v1.2.,2013-01-01 22:51:00,
2013-01-01 14:56:00,59.6,21.8,30.09,ESE,109,1.0,12.0,23,0.00,,,0.00,202,HR-IXPWINDi_r2_v1.2.,2013-01-01 22:56:00,
2013-01-01 15:01:00,59.5,21.7,30.09,ESE,106,0.0,12.0,23,0.00,,,0.00,162,HR-IXPWINDi_r2_v1.2.,2013-01-01 23:01:00,
2013-01-01 15:06:00,59.6,24.7,30.09,NNE,15,2.0,10.0,26,0.00,,,0.00,139,HR-IXPWINDi_r2_v1.2.,2013-01-01 23:06:00,
2013-01-01 15:11:00,59.5,21.7,30.09,NE,42,4.0,10.0,23,0.00,,,0.00,139,HR-IXPWINDi_r2_v1.2.,2013-01-01 23:11:00,
2013-01-01 15:16:00,59.2,21.4,30.09,South,171,2.0,6.0,23,0.00,,,0.00,135,HR-IXPWINDi_r2_v1.2.,2013-01-01 23:16:00,
2013-01-01 15:22:00,59.0,22.3,30.09,ESE,113,2.0,6.0,24,0.00,,,0.00,127,HR-IXPWINDi_r2_v1.2.,2013-01-01 23:22:00,
2013-01-01 15:27:00,58.5,20.8,30.09,East,99,9.0,13.0,23,0.00,,,0.00,109,HR-IXPWINDi_r2_v1.2.,2013-01-01 23:27:00,
2013-01-01 15:32:00,58.4,23.6,30.09,ENE,78,5.0,13.0,26,0.00,,,0.00,104,HR-IXPWINDi_r2_v1.2.,2013-01-01 23:32:00,
2013-01-01 15:37:00,58.4,18.6,30.09,NW,310,1.0,8.0,21,0.00,,,0.00,98,HR-IXPWINDi_r2_v1.2.,2013-01-01 23:37:00,
2013-01-01 15:43:00,58.1,20.5,30.09,SE,145,1.0,8.0,23,0.00,,,0.00,98,HR-IXPWINDi_r2_v1.2.,2013-01-01 23:43:00,
2013-01-01 15:48:00,58.0,21.4,30.09,ESE,107,4.0,9.0,24,0.00,,,0.00,90,HR-IXPWINDi_r2_v1.2.,2013-01-01 23:48:00,
2013-01-01 15:53:00,58.2,20.6,30.09,ESE,109,2.0,9.0,23,0.00,,,0.00,81,HR-IXPWINDi_r2_v1.2.,2013-01-01 23:53:00,
2013-01-01 15:59:00,58.0,20.4,30.09,SSW,200,1.0,8.0,23,0.00,,,0.00,69,HR-IXPWINDi_r2_v1.2.,2013-01-01 23:59:00,
2013-01-01 16:04:00,57.8,19.2,30.10,SSE,155,3.0,8.0,22,0.00,,,0.00,62,HR-IXPWINDi_r2_v1.2.,2013-01-02 00:04:00,
2013-01-01 16:09:00,57.7,21.2,30.10,South,178,4.0,10.0,24,0.00,,,0.00,56,HR-IXPWINDi_r2_v1.2.,2013-01-02 00:09:00,
2013-01-01 16:14:00,57.5,20.0,30.10,SSE,160,0.0,10.0,23,0.00,,,0.00,49,HR-IXPWINDi_r2_v1.2.,2013-01-02 00:14:00,
2013-01-01 16:20:00,57.2,21.7,30.10,NE,52,6.0,7.0,25,0.00,,,0.00,42,HR-IXPWINDi_r2_v1.2.,2013-01-02 00:20:00,
2013-01-01 16:25:00,57.5,19.0,30.10,ENE,64,4.0,7.0,22,0.00,,,0.00,33,HR-IXPWINDi_r2_v1.2.,2013-01-02 00:25:00,
2013-01-01 16:30:00,57.4,19.9,30.10,ESE,111,0.0,7.0,23,0.00,,,0.00,28,HR-IXPWINDi_r2_v1.2.,2013-01-02 00:30:00,
2013-01-01 16:35:00,56.8,21.4,30.10,SE,128,0.0,5.0,25,0.00,,,0.00,21,HR-IXPWINDi_r2_v1.2.,2013-01-02 00:35:00,
2013-01-01 16:40:00,56.7,21.3,30.10,ESE,111,0.0,2.0,25,0.00,,,0.00,16,HR-IXPWINDi_r2_v1.2.,2013-01-02 00:40:00,
2013-01-01 16:45:00,56.3,22.7,30.10,West,272,0.0,3.0,27,0.00,,,0.00,11,HR-IXPWINDi_r2_v1.2.,2013-01-02 00:45:00,
2013-01-01 16:50:00,56.4,20.1,30.10,SE,142,0.0,5.0,24,0.00,,,0.00,7,HR-IXPWINDi_r2_v1.2.,2013-01-02 00:50:00,
2013-01-01 16:56:00,56.5,21.1,30.10,ENE,61,1.0,7.0,25,0.00,,,0.00,0,HR-IXPWINDi_r2_v1.2.,2013-01-02 00:56:00,
2013-01-01 17:01:00,56.6,18.2,30.10,ESE,123,2.0,9.0,22,0.00,,,0.00,0,HR-IXPWINDi_r2_v1.2.,2013-01-02 01:01:00,
2013-01-01 17:06:00,57.1,17.5,30.10,NNE,27,0.0,9.0,21,0.00,,,0.00,0,HR-IXPWINDi_r2_v1.2.,2013-01-02 01:06:00,
2013-01-01 17:11:00,57.1,18.6,30.10,NE,51,2.0,6.0,22,0.00,,,0.00,0,HR-IXPWINDi_r2_v1.2.,2013-01-02 01:11:00,
2013-01-01 17:17:00,56.9,19.5,30.10,South,183,2.0,6.0,23,0.00,,,0.00,0,HR-IXPWINDi_r2_v1.2.,2013-01-02 01:17:00,
2013-01-01 17:22:00,56.2,19.9,30.10,ENE,65,2.0,6.0,24,0.00,,,0.00,0,HR-IXPWINDi_r2_v1.2.,2013-01-02 01:22:00,
2013-01-01 17:27:00,56.4,17.0,30.10,NNW,327,2.0,6.0,21,0.00,,,0.00,0,HR-IXPWINDi_r2_v1.2.,2013-01-02 01:27:00,
2013-01-01 17:33:00,56.4,17.0,30.10,ESE,121,0.0,6.0,21,0.00,,,0.00,0,HR-IXPWINDi_r2_v1.2.,2013-01-02 01:33:00,
2013-01-01 17:38:00,56.2,16.8,30.11,ESE,105,2.0,8.0,21,0.00,,,0.00,0,HR-IXPWINDi_r2_v1.2.,2013-01-02 01:38:00,
2013-01-01 17:43:00,56.9,15.1,30.10,East,94,2.0,9.0,19,0.00,,,0.00,0,HR-IXPWINDi_r2_v1.2.,2013-01-02 01:43:00,
2013-01-01 17:48:00,57.3,16.6,30.10,NE,55,1.0,9.0,20,0.00,,,0.00,0,HR-IXPWINDi_r2_v1.2.,2013-01-02 01:48:00,
2013-01-01 17:53:00,57.0,16.3,30.10,West,259,1.0,13.0,20,0.00,,,0.00,0,HR-IXPWINDi_r2_v1.2.,2013-01-02 01:53:00,
2013-01-01 17:59:00,56.8,18.4,30.10,WSW,250,4.0,13.0,22,0.00,,,0.00,0,HR-IXPWINDi_r2_v1.2.,2013-01-02 01:59:00,
2013-01-01 18:04:00,56.7,14.9,30.10,NE,49,0.0,9.0,19,0.00,,,0.00,0,HR-IXPWINDi_r2_v1.2.,2013-01-02 02:04:00,
2013-01-01 18:09:00,56.7,16.1,30.10,SSE,167,1.0,9.0,20,0.00,,,0.00,0,HR-IXPWINDi_r2_v1.2.,2013-01-02 02:09:00,
2013-01-01 18:14:00,56.7,14.9,30.10,NNW,336,8.0,9.0,19,0.00,,,0.00,0,HR-IXPWINDi_r2_v1.2.,2013-01-02 02:14:00,
2013-01-01 18:19:00,56.8,15.0,30.11,ENE,63,10.0,10.0,19,0.00,,,0.00,0,HR-IXPWINDi_r2_v1.2.,2013-01-02 02:19:00,
2013-01-01 18:25:00,56.7,16.1,30.11,ENE,69,8.0,10.0,20,0.00,,,0.00,0,HR-IXPWINDi_r2_v1.2.,2013-01-02 02:25:00,
2013-01-01 18:30:00,56.9,16.3,30.11,NE,38,5.0,14.0,20,0.00,,,0.00,0,HR-IXPWINDi_r2_v1.2.,2013-01-02 02:30:00,
2013-01-01 18:35:00,56.9,15.1,30.10,SSE,155,8.0,14.0,19,0.00,,,0.00,0,HR-IXPWINDi_r2_v1.2.,2013-01-02 02:35:00,
2013-01-01 18:40:00,56.9,15.1,30.10,ESE,103,4.0,14.0,19,0.00,,,0.00,0,HR-IXPWINDi_r2_v1.2.,2013-01-02 02:40:00,
2013-01-01 18:45:00,56.8,16.2,30.11,East,94,5.0,12.0,20,0.00,,,0.00,0,HR-IXPWINDi_r2_v1.2.,2013-01-02 02:45:00,
2013-01-01 18:50:00,57.1,14.0,30.11,ENE,68,2.0,15.0,18,0.00,,,0.00,0,HR-IXPWINDi_r2_v1.2.,2013-01-02 02:50:00,
2013-01-01 18:56:00,57.4,15.5,30.11,ESE,113,1.0,15.0,19,0.00,,,0.00,0,HR-IXPWINDi_r2_v1.2.,2013-01-02 02:56:00,
2013-01-01 19:01:00,57.3,14.2,30.11,SE,142,3.0,10.0,18,0.00,,,0.00,0,HR-IXPWINDi_r2_v1.2.,2013-01-02 03:01:00,
2013-01-01 19:06:00,57.3,14.2,30.11,NNW,336,2.0,15.0,18,0.00,,,0.00,0,HR-IXPWINDi_r2_v1.2.,2013-01-02 03:06:00,
2013-01-01 19:11:00,56.8,17.3,30.11,ENE,74,8.0,15.0,21,0.00,,,0.00,0,HR-IXPWINDi_r2_v1.2.,2013-01-02 03:11:00,
2013-01-01 19:16:00,56.8,16.2,30.11,ENE,63,1.0,13.0,20,0.00,,,0.00,0,HR-IXPWINDi_r2_v1.2.,2013-01-02 03:16:00,
2013-01-01 19:21:00,56.7,16.1,30.11,East,99,0.0,13.0,20,0.00,,,0.00,0,HR-IXPWINDi_r2_v1.2.,2013-01-02 03:21:00,
2013-01-01 19:27:00,56.5,17.0,30.11,South,170,7.0,15.0,21,0.00,,,0.00,0,HR-IXPWINDi_r2_v1.2.,2013-01-02 03:27:00,
2013-01-01 19:32:00,56.6,17.1,30.11,SSW,200,3.0,15.0,21,0.00,,,0.00,0,HR-IXPWINDi_r2_v1.2.,2013-01-02 03:32:00,
2013-01-01 19:37:00,56.5,21.1,30.11,East,83,1.0,12.0,25,0.00,,,0.00,0,HR-IXPWINDi_r2_v1.2.,2013-01-02 03:37:00,
2013-01-01 19:42:00,56.1,15.6,30.11,SE,133,4.0,10.0,20,0.00,,,0.00,0,HR-IXPWINDi_r2_v1.2.,2013-01-02 03:42:00,
2013-01-01 19:47:00,56.3,16.9,30.11,ESE,114,1.0,10.0,21,0.00,,,0.00,0,HR-IXPWINDi_r2_v1.2.,2013-01-02 03:47:00,
2013-01-01 19:52:00,56.5,14.7,30.11,SE,136,1.0,10.0,19,0.00,,,0.00,0,HR-IXPWINDi_r2_v1.2.,2013-01-02 03:52:00,
2013-01-01 19:57:00,56.7,16.1,30.11,SSE,167,2.0,9.0,20,0.00,,,0.00,0,HR-IXPWINDi_r2_v1.2.,2013-01-02 03:57:00,
2013-01-01 20:02:00,56.7,14.9,30.11,ENE,67,1.0,9.0,19,0.00,,,0.00,0,HR-IXPWINDi_r2_v1.2.,2013-01-02 04:02:00,
2013-01-01 20:08:00,56.6,16.0,30.12,SSE,155,2.0,12.0,20,0.00,,,0.00,0,HR-IXPWINDi_r2_v1.2.,2013-01-02 04:08:00,
2013-01-01 20:13:00,56.7,16.1,30.12,SE,132,7.0,15.0,20,0.00,,,0.00,0,HR-IXPWINDi_r2_v1.2.,2013-01-02 04:13:00,
2013-01-01 20:18:00,56.6,16.0,30.12,NNE,17,5.0,15.0,20,0.00,,,0.00,0,HR-IXPWINDi_r2_v1.2.,2013-01-02 04:18:00,
2013-01-01 20:23:00,56.7,16.1,30.12,South,170,1.0,13.0,20,0.00,,,0.00,0,HR-IXPWINDi_r2_v1.2.,2013-01-02 04:23:00,
2013-01-01 20:28:00,56.3,17.9,30.12,North,9,4.0,13.0,22,0.00,,,0.00,0,HR-IXPWINDi_r2_v1.2.,2013-01-02 04:28:00,
2013-01-01 20:34:00,56.5,14.7,30.13,ESE,113,2.0,12.0,19,0.00,,,0.00,0,HR-IXPWINDi_r2_v1.2.,2013-01-02 04:34:00,
2013-01-01 20:39:00,56.6,14.8,30.13,ESE,104,1.0,12.0,19,0.00,,,0.00,0,HR-IXPWINDi_r2_v1.2.,2013-01-02 04:39:00,
2013-01-01 20:44:00,56.6,16.0,30.12,North,355,5.0,14.0,20,0.00,,,0.00,0,HR-IXPWINDi_r2_v1.2.,2013-01-02 04:44:00,
2013-01-01 20:49:00,56.2,17.9,30.13,SE,140,2.0,14.0,22,0.00,,,0.00,0,HR-IXPWINDi_r2_v1.2.,2013-01-02 04:49:00,
2013-01-01 20:54:00,56.1,15.6,30.13,East,94,3.0,10.0,20,0.00,,,0.00,0,HR-IXPWINDi_r2_v1.2.,2013-01-02 04:54:00,
2013-01-01 20:59:00,56.1,17.8,30.13,SSW,205,1.0,10.0,22,0.00,,,0.00,0,HR-IXPWINDi_r2_v1.2.,2013-01-02 04:59:00,
2013-01-01 21:00:00,56.0,16.6,30.13,East,101,1.0,10.0,21,0.00,,,0.00,0,HR-IXPWINDi_r2_v1.2.,2013-01-02 05:00:00,
2013-01-01 21:05:00,55.8,16.5,30.13,East,92,2.0,10.0,21,0.00,,,0.00,0,HR-IXPWINDi_r2_v1.2.,2013-01-02 05:05:00,
2013-01-01 21:10:00,55.9,15.4,30.13,ENE,71,1.0,10.0,20,0.00,,,0.00,0,HR-IXPWINDi_r2_v1.2.,2013-01-02 05:10:00,
2013-01-01 21:15:00,56.0,15.5,30.13,North,360,7.0,10.0,20,0.00,,,0.00,0,HR-IXPWINDi_r2_v1.2.,2013-01-02 05:15:00,
2013-01-01 21:20:00,56.5,15.9,30.13,ENE,77,2.0,13.0,20,0.00,,,0.00,0,HR-IXPWINDi_r2_v1.2.,2013-01-02 05:20:00,
2013-01-01 21:26:00,56.6,14.8,30.14,ESE,108,1.0,13.0,19,0.00,,,0.00,0,HR-IXPWINDi_r2_v1.2.,2013-01-02 05:26:00,
2013-01-01 21:31:00,56.9,16.3,30.13,NW,316,5.0,10.0,20,0.00,,,0.00,0,HR-IXPWINDi_r2_v1.2.,2013-01-02 05:31:00,
2013-01-01 21:36:00,56.7,14.9,30.14,SE,141,1.0,11.0,19,0.00,,,0.00,0,HR-IXPWINDi_r2_v1.2.,2013-01-02 05:36:00,
2013-01-01 21:41:00,56.6,18.2,30.13,North,11,2.0,12.0,22,0.00,,,0.00,0,HR-IXPWINDi_r2_v1.2.,2013-01-02 05:41:00,
2013-01-01 21:46:00,56.1,15.6,30.13,NNE,27,7.0,12.0,20,0.00,,,0.00,0,HR-IXPWINDi_r2_v1.2.,2013-01-02 05:46:00,
2013-01-01 21:52:00,56.3,15.8,30.13,NNW,348,3.0,13.0,20,0.00,,,0.00,0,HR-IXPWINDi_r2_v1.2.,2013-01-02 05:52:00,
2013-01-01 21:57:00,56.2,15.7,30.13,ESE,107,1.0,13.0,20,0.00,,,0.00,0,HR-IXPWINDi_r2_v1.2.,2013-01-02 05:57:00,
2013-01-01 22:02:00,56.3,14.6,30.13,ESE,103,5.0,8.0,19,0.00,,,0.00,0,HR-IXPWINDi_r2_v1.2.,2013-01-02 06:02:00,
2013-01-01 22:07:00,56.5,15.9,30.13,ESE,115,1.0,7.0,20,0.00,,,0.00,0,HR-IXPWINDi_r2_v1.2.,2013-01-02 06:07:00,
2013-01-01 22:12:00,56.4,14.7,30.13,ENE,68,4.0,10.0,19,0.00,,,0.00,0,HR-IXPWINDi_r2_v1.2.,2013-01-02 06:12:00,
2013-01-01 22:17:00,56.6,14.8,30.13,NNE,21,6.0,10.0,19,0.00,,,0.00,0,HR-IXPWINDi_r2_v1.2.,2013-01-02 06:17:00,
2013-01-01 22:23:00,56.8,16.2,30.14,North,350,7.0,14.0,20,0.00,,,0.00,0,HR-IXPWINDi_r2_v1.2.,2013-01-02 06:23:00,
2013-01-01 22:28:00,56.9,15.1,30.13,North,351,4.0,14.0,19,0.00,,,0.00,0,HR-IXPWINDi_r2_v1.2.,2013-01-02 06:28:00,
2013-01-01 22:33:00,56.6,16.0,30.14,NNE,15,0.0,7.0,20,0.00,,,0.00,0,HR-IXPWINDi_r2_v1.2.,2013-01-02 06:33:00,
2013-01-01 22:38:00,56.3,15.8,30.14,ENE,64,3.0,12.0,20,0.00,,,0.00,0,HR-IXPWINDi_r2_v1.2.,2013-01-02 06:38:00,
2013-01-01 22:43:00,56.7,14.9,30.13,North,360,7.0,12.0,19,0.00,,,0.00,0,HR-IXPWINDi_r2_v1.2.,2013-01-02 06:43:00,
2013-01-01 22:49:00,56.6,16.0,30.13,ESE,113,2.0,12.0,20,0.00,,,0.00,0,HR-IXPWINDi_r2_v1.2.,2013-01-02 06:49:00,
2013-01-01 22:54:00,56.7,16.1,30.13,NW,323,6.0,18.0,20,0.00,,,0.00,0,HR-IXPWINDi_r2_v1.2.,2013-01-02 06:54:00,
2013-01-01 22:59:00,56.5,17.0,30.13,North,350,2.0,18.0,21,0.00,,,0.00,0,HR-IXPWINDi_r2_v1.2.,2013-01-02 06:59:00,
2013-01-01 23:04:00,56.4,15.8,30.13,ESE,112,9.0,13.0,20,0.00,,,0.00,0,HR-IXPWINDi_r2_v1.2.,2013-01-02 07:04:00,
2013-01-01 23:09:00,56.5,15.9,30.14,NNW,345,5.0,13.0,20,0.00,,,0.00,0,HR-IXPWINDi_r2_v1.2.,2013-01-02 07:09:00,
2013-01-01 23:15:00,56.4,15.8,30.13,North,355,5.0,11.0,20,0.00,,,0.00,0,HR-IXPWINDi_r2_v1.2.,2013-01-02 07:15:00,
2013-01-01 23:20:00,56.6,14.8,30.13,NNW,344,4.0,12.0,19,0.00,,,0.00,0,HR-IXPWINDi_r2_v1.2.,2013-01-02 07:20:00,
2013-01-01 23:25:00,56.8,15.0,30.13,NNW,348,6.0,15.0,19,0.00,,,0.00,0,HR-IXPWINDi_r2_v1.2.,2013-01-02 07:25:00,
2013-01-01 23:30:00,56.9,15.1,30.13,NNE,13,7.0,15.0,19,0.00,,,0.00,0,HR-IXPWINDi_r2_v1.2.,2013-01-02 07:30:00,
2013-01-01 23:35:00,56.7,16.1,30.13,NNE,33,3.0,13.0,20,0.00,,,0.00,0,HR-IXPWINDi_r2_v1.2.,2013-01-02 07:35:00,
2013-01-01 23:40:00,56.5,14.7,30.13,ENE,71,1.0,14.0,19,0.00,,,0.00,0,HR-IXPWINDi_r2_v1.2.,2013-01-02 07:40:00,
2013-01-01 23:46:00,57.0,15.2,30.12,SE,128,5.0,16.0,19,0.00,,,0.00,0,HR-IXPWINDi_r2_v1.2.,2013-01-02 07:46:00,
2013-01-01 23:51:00,57.1,16.4,30.11,East,81,5.0,16.0,20,0.00,,,0.00,0,HR-IXPWINDi_r2_v1.2.,2013-01-02 07:51:00,
2013-01-01 23:56:00,57.2,16.5,30.12,SSE,150,3.0,13.0,20,0.00,,,0.00,0,HR-IXPWINDi_r2_v1.2.,2013-01-02 07:56:00,